• în România
  • Lista ţărilor
  • Pe 7 zile
  • Temperatura apei
  • Hartă satelitară
  • Meteo pe hartă
  • Widget-uri
  • user-avatar
    Intrare

    Meteo pe oră la Polyanskoe

    Astăzi, 25 Iunie, Luni

    Timp Temperatura Precipitaţii Vânt Presiune Umiditate
    00:00 +21°C° 0 mm 2 m/s 740 mmHg 68%
    01:00 +21°C° 0 mm 1 m/s 741 mmHg 72%
    02:00 +20°C° 0 mm 1 m/s 741 mmHg 76%
    03:00 +20°C° 0 mm 1 m/s 741 mmHg 80%
    04:00 +21°C° 0 mm 1 m/s 741 mmHg 78%
    05:00 +21°C° 0 mm 1 m/s 742 mmHg 77%
    06:00 +22°C° 0 mm 1 m/s 742 mmHg 76%
    07:00 +24°C° 0 mm 1 m/s 742 mmHg 71%
    08:00 +25°C° 0 mm 1 m/s 742 mmHg 67%
    09:00 +27°C° 0 mm 1 m/s 743 mmHg 62%
    10:00 +28°C° 0 mm 1 m/s 743 mmHg 58%
    11:00 +29°C° 0 mm 1 m/s 743 mmHg 53%
    12:00 +30°C° 0 mm 1 m/s 743 mmHg 49%
    13:00 +31°C° 0 mm 1 m/s 743 mmHg 48%
    14:00 +31°C° 0 mm 1 m/s 743 mmHg 46%
    15:00 +31°C° 0 mm 1 m/s 743 mmHg 45%
    16:00 +31°C° 0,1 mm 2 m/s 743 mmHg 50%
    17:00 +30°C° 0,1 mm 2 m/s 743 mmHg 55%
    18:00 +30°C° 0,1 mm 2 m/s 743 mmHg 60%
    19:00 +27°C° 0,3 mm 3 m/s 743 mmHg 68%
    20:00 +25°C° 0,3 mm 3 m/s 743 mmHg 76%
    21:00 +22°C° 0,3 mm 3 m/s 743 mmHg 84%
    22:00 +21°C° 0,6 mm 3 m/s 743 mmHg 86%
    23:00 +21°C° 0,6 mm 3 m/s 743 mmHg 89%

    Mâine, 26 Iunie, Marţi

    Timp Temperatura Precipitaţii Vânt Presiune Umiditate
    00:00 +20°C° 0,6 mm 3 m/s 744 mmHg 92%
    01:00 +20°C° 0,4 mm 3 m/s 744 mmHg 92%
    02:00 +20°C° 0,4 mm 3 m/s 744 mmHg 92%
    03:00 +19°C° 0,4 mm 3 m/s 744 mmHg 92%
    04:00 +20°C° 0 mm 3 m/s 744 mmHg 90%
    05:00 +21°C° 0 mm 2 m/s 744 mmHg 87%
    06:00 +21°C° 0 mm 2 m/s 744 mmHg 84%
    07:00 +24°C° 0 mm 2 m/s 744 mmHg 77%
    08:00 +26°C° 0 mm 2 m/s 744 mmHg 69%
    09:00 +28°C° 0 mm 2 m/s 744 mmHg 62%
    10:00 +29°C° 0 mm 2 m/s 744 mmHg 56%
    11:00 +31°C° 0 mm 2 m/s 744 mmHg 51%
    12:00 +33°C° 0 mm 3 m/s 744 mmHg 45%
    13:00 +32°C° 0 mm 2 m/s 744 mmHg 44%
    14:00 +34°C° 0 mm 2 m/s 743 mmHg 42%
    15:00 +34°C° 0 mm 2 m/s 743 mmHg 41%
    16:00 +34°C° 0 mm 2 m/s 743 mmHg 45%
    17:00 +32°C° 0 mm 2 m/s 743 mmHg 48%
    18:00 +32°C° 0 mm 2 m/s 743 mmHg 52%
    19:00 +30°C° 0 mm 2 m/s 743 mmHg 56%
    20:00 +28°C° 0 mm 2 m/s 743 mmHg 60%
    21:00 +26°C° 0 mm 2 m/s 743 mmHg 64%
    22:00 +25°C° 0,1 mm 2 m/s 743 mmHg 68%
    23:00 +24°C° 0,1 mm 3 m/s 743 mmHg 72%

    Poimâine, 27 Iunie, Miercuri

    Timp Temperatura Precipitaţii Vânt Presiune Umiditate
    00:00 +22°C° 0,1 mm 3 m/s 743 mmHg 77%
    01:00 +22°C° 0,5 mm 3 m/s 743 mmHg 81%
    02:00 +21°C° 0,5 mm 3 m/s 743 mmHg 85%
    03:00 +21°C° 0,5 mm 3 m/s 743 mmHg 89%
    04:00 +21°C° 0 mm 3 m/s 743 mmHg 87%
    05:00 +22°C° 0 mm 3 m/s 743 mmHg 85%
    06:00 +24°C° 0 mm 3 m/s 744 mmHg 83%
    07:00 +25°C° 0,3 mm 3 m/s 744 mmHg 78%
    08:00 +27°C° 0,3 mm 3 m/s 744 mmHg 73%
    09:00 +28°C° 0,3 mm 3 m/s 744 mmHg 68%
    10:00 +29°C° 0 mm 3 m/s 744 mmHg 63%
    11:00 +30°C° 0 mm 4 m/s 744 mmHg 59%
    12:00 +32°C° 0 mm 4 m/s 743 mmHg 54%
    13:00 +32°C° 0,2 mm 4 m/s 743 mmHg 54%
    14:00 +32°C° 0,2 mm 4 m/s 743 mmHg 53%
    15:00 +31°C° 0,2 mm 3 m/s 743 mmHg 52%
    16:00 +31°C° 0,2 mm 3 m/s 743 mmHg 57%
    17:00 +30°C° 0,2 mm 3 m/s 743 mmHg 61%
    18:00 +29°C° 0,2 mm 3 m/s 743 mmHg 65%
    19:00 +28°C° 0,2 mm 3 m/s 743 mmHg 71%
    20:00 +26°C° 0,2 mm 3 m/s 743 mmHg 77%
    21:00 +24°C° 0,2 mm 3 m/s 743 mmHg 83%
    22:00 +22°C° 0 mm 3 m/s 743 mmHg 84%
    23:00 +22°C° 0 mm 3 m/s 743 mmHg 86%

    28 Iunie, Joi

    Timp Temperatura Precipitaţii Vânt Presiune Umiditate
    00:00 +21°C° 0 mm 3 m/s 743 mmHg 88%
    01:00 +21°C° 0,1 mm 2 m/s 743 mmHg 89%
    02:00 +21°C° 0,1 mm 2 m/s 743 mmHg 90%
    03:00 +20°C° 0,1 mm 2 m/s 743 mmHg 91%
    04:00 +21°C° 0,1 mm 3 m/s 743 mmHg 88%
    05:00 +21°C° 0,1 mm 3 m/s 743 mmHg 85%
    06:00 +22°C° 0,1 mm 3 m/s 743 mmHg 83%
    07:00 +24°C° 0 mm 3 m/s 743 mmHg 77%
    08:00 +26°C° 0 mm 4 m/s 744 mmHg 71%
    09:00 +27°C° 0 mm 4 m/s 744 mmHg 65%
    10:00 +28°C° 0 mm 4 m/s 743 mmHg 62%
    11:00 +29°C° 0 mm 4 m/s 743 mmHg 58%
    12:00 +30°C° 0 mm 4 m/s 743 mmHg 55%
    13:00 +30°C° 0 mm 4 m/s 743 mmHg 54%
    14:00 +30°C° 0 mm 4 m/s 743 mmHg 54%
    15:00 +32°C° 0 mm 4 m/s 743 mmHg 53%
    16:00 +30°C° 0,1 mm 4 m/s 743 mmHg 58%
    17:00 +29°C° 0,1 mm 4 m/s 743 mmHg 62%
    18:00 +28°C° 0,1 mm 4 m/s 743 mmHg 66%
    19:00 +26°C° 0 mm 4 m/s 743 mmHg 69%
    20:00 +25°C° 0 mm 4 m/s 743 mmHg 71%
    21:00 +22°C° 0 mm 4 m/s 743 mmHg 73%
    22:00 +21°C° 0,1 mm 3 m/s 743 mmHg 75%
    23:00 +20°C° 0,1 mm 3 m/s 743 mmHg 77%

    29 Iunie, Vineri

    Timp Temperatura Precipitaţii Vânt Presiune Umiditate
    00:00 +20°C° 0,1 mm 3 m/s 743 mmHg 79%
    01:00 +19°C° 0 mm 3 m/s 743 mmHg 79%
    02:00 +18°C° 0 mm 3 m/s 743 mmHg 79%
    03:00 +18°C° 0 mm 3 m/s 743 mmHg 79%
    04:00 +18°C° 0 mm 3 m/s 743 mmHg 77%
    05:00 +19°C° 0 mm 3 m/s 743 mmHg 76%
    06:00 +19°C° 0 mm 3 m/s 743 mmHg 74%
    07:00 +21°C° 0 mm 4 m/s 743 mmHg 67%
    08:00 +23°C° 0 mm 4 m/s 743 mmHg 61%
    09:00 +25°C° 0 mm 4 m/s 743 mmHg 55%
    10:00 +26°C° 0 mm 4 m/s 743 mmHg 51%
    11:00 +27°C° 0 mm 4 m/s 743 mmHg 48%
    12:00 +28°C° 0 mm 4 m/s 743 mmHg 45%
    13:00 +28°C° 0 mm 4 m/s 742 mmHg 44%
    14:00 +29°C° 0 mm 3 m/s 742 mmHg 44%
    15:00 +29°C° 0 mm 3 m/s 742 mmHg 43%
    16:00 +28°C° 0 mm 3 m/s 742 mmHg 47%
    17:00 +28°C° 0 mm 3 m/s 741 mmHg 50%
    18:00 +27°C° 0 mm 3 m/s 741 mmHg 54%
    19:00 +26°C° 0 mm 2 m/s 741 mmHg 56%
    20:00 +24°C° 0 mm 2 m/s 741 mmHg 59%
    21:00 +21°C° 0 mm 2 m/s 741 mmHg 61%
    22:00 +20°C° 0 mm 3 m/s 741 mmHg 63%
    23:00 +20°C° 0 mm 3 m/s 741 mmHg 64%

    30 Iunie, Sâmbătă

    Timp Temperatura Precipitaţii Vânt Presiune Umiditate
    00:00 +19°C° 0 mm 3 m/s 740 mmHg 66%
    01:00 +19°C° 0 mm 3 m/s 740 mmHg 70%
    02:00 +18°C° 0 mm 3 m/s 740 mmHg 74%
    03:00 +18°C° 0 mm 3 m/s 740 mmHg 79%
    04:00 +19°C° 0 mm 3 m/s 740 mmHg 77%
    05:00 +20°C° 0 mm 4 m/s 740 mmHg 76%
    06:00 +20°C° 0 mm 4 m/s 741 mmHg 75%
    07:00 +22°C° 0 mm 4 m/s 741 mmHg 70%
    08:00 +25°C° 0 mm 5 m/s 741 mmHg 65%
    09:00 +27°C° 0 mm 5 m/s 741 mmHg 59%
    10:00 +27°C° 0 mm 5 m/s 741 mmHg 56%
    11:00 +28°C° 0 mm 5 m/s 740 mmHg 54%
    12:00 +29°C° 0 mm 5 m/s 740 mmHg 51%
    13:00 +30°C° 0 mm 5 m/s 740 mmHg 49%
    14:00 +30°C° 0 mm 5 m/s 740 mmHg 48%
    15:00 +30°C° 0 mm 5 m/s 740 mmHg 47%
    16:00 +30°C° 0 mm 4 m/s 739 mmHg 51%
    17:00 +29°C° 0 mm 4 m/s 739 mmHg 54%
    18:00 +28°C° 0 mm 3 m/s 739 mmHg 58%
    19:00 +27°C° 0,1 mm 3 m/s 739 mmHg 60%
    20:00 +26°C° 0,1 mm 3 m/s 739 mmHg 62%
    21:00 +24°C° 0,1 mm 3 m/s 739 mmHg 64%
    22:00 +24°C° 0 mm 3 m/s 738 mmHg 65%
    23:00 +22°C° 0 mm 4 m/s 738 mmHg 66%
    Arată mai mult